ProjectID,Date,Electric Generation,Electric Utility Import,Facility Electric Load
,YYYY-MM-DD,kW,kW,kW
173,2013-12-21,22.0,,22.0
173,2013-12-22,7.958333333333333,,7.958333333333333
173,2013-12-23,0.0,,0.0
173,2013-12-24,0.0,,0.0
173,2013-12-25,0.0,,0.0
173,2013-12-26,0.0,,0.0
173,2013-12-27,0.0,,0.0
173,2013-12-28,0.0,,0.0
173,2013-12-29,0.0,,0.0
173,2013-12-30,0.0,,0.0
173,2013-12-31,0.0,,0.0
173,2014-01-01,17.583333333333332,,17.583333333333332
173,2014-01-02,1.4166666666666667,,1.4166666666666667
173,2014-01-03,20.0,,20.0
173,2014-01-04,23.083333333333332,,23.083333333333332
173,2014-01-05,3.6666666666666665,,3.6666666666666665
173,2014-01-06,4.083333333333333,,4.083333333333333
173,2014-01-07,34.916666666666664,,34.916666666666664
173,2014-01-08,32.291666666666664,,32.291666666666664
173,2014-01-09,32.583333333333336,,32.583333333333336
173,2014-01-10,4.708333333333333,,4.708333333333333
173,2014-01-11,4.916666666666667,,4.916666666666667
173,2014-01-12,14.166666666666666,,14.166666666666666
173,2014-01-13,24.958333333333332,,24.958333333333332
173,2014-01-14,1.9583333333333333,,1.9583333333333333
173,2014-01-15,27.083333333333332,,27.083333333333332
173,2014-01-16,9.166666666666666,,9.166666666666666
173,2014-01-17,32.458333333333336,,32.458333333333336
173,2014-01-18,6.583333333333333,,6.583333333333333
173,2014-01-19,24.833333333333332,,24.833333333333332
173,2014-01-20,13.791666666666666,,13.791666666666666
173,2014-01-21,0.0,,0.0
173,2014-01-22,0.0,,0.0
173,2014-01-23,0.0,,0.0
173,2014-01-24,0.0,,0.0
173,2014-01-25,0.0,,0.0
173,2014-01-26,0.0,,0.0
173,2014-01-27,0.0,,0.0
173,2014-01-28,27.708333333333332,,27.708333333333332
173,2014-01-29,20.125,,20.125
173,2014-01-30,39.583333333333336,,39.583333333333336
173,2014-01-31,21.791666666666668,,21.791666666666668
173,2014-02-01,29.375,,29.375
173,2014-02-02,25.833333333333332,,25.833333333333332
173,2014-02-03,0.0,,0.0
173,2014-02-04,0.0,,0.0
173,2014-02-05,0.0,,0.0
173,2014-02-06,0.0,,0.0
173,2014-02-07,0.0,,0.0
173,2014-02-08,0.0,,0.0
173,2014-02-09,0.0,,0.0
173,2014-02-10,0.0,,0.0
173,2014-02-11,0.0,,0.0
173,2014-02-12,0.0,,0.0
173,2014-02-13,0.0,,0.0
173,2014-02-14,0.0,,0.0
173,2014-02-15,0.0,,0.0
173,2014-02-16,0.0,,0.0
173,2014-02-17,0.0,,0.0
173,2014-02-18,0.0,,0.0
173,2014-02-19,0.125,,0.125
173,2014-02-20,3.2916666666666665,,3.2916666666666665
173,2014-02-21,3.5416666666666665,,3.5416666666666665
173,2014-02-22,46.75,,46.75
173,2014-02-23,44.916666666666664,,44.916666666666664
173,2014-02-24,49.875,,49.875
173,2014-02-25,28.75,,28.75
173,2014-02-26,26.291666666666668,,26.291666666666668
173,2014-02-27,36.625,,36.625
173,2014-02-28,59.458333333333336,,59.458333333333336
173,2014-03-01,49.5,,49.5
173,2014-03-02,10.208333333333334,,10.208333333333334
173,2014-03-03,13.125,,13.125
173,2014-03-04,40.25,,40.25
173,2014-03-05,44.291666666666664,,44.291666666666664
173,2014-03-06,58.75,,58.75
173,2014-03-07,23.5,,23.5
173,2014-03-08,53.583333333333336,,53.583333333333336
173,2014-03-09,58.958333333333336,,58.958333333333336
173,2014-03-10,30.208333333333332,,30.208333333333332
173,2014-03-11,47.125,,47.125
173,2014-03-12,17.958333333333332,,17.958333333333332
173,2014-03-13,63.166666666666664,,63.166666666666664
173,2014-03-14,45.541666666666664,,45.541666666666664
173,2014-03-15,53.958333333333336,,53.958333333333336
173,2014-03-16,52.0,,52.0
173,2014-03-17,35.583333333333336,,35.583333333333336
173,2014-03-18,67.83333333333333,,67.83333333333333
173,2014-03-19,24.583333333333332,,24.583333333333332
173,2014-03-20,53.166666666666664,,53.166666666666664
173,2014-03-21,66.79166666666667,,66.79166666666667
173,2014-03-22,48.458333333333336,,48.458333333333336
173,2014-03-23,32.125,,32.125
173,2014-03-24,69.875,,69.875
173,2014-03-25,45.708333333333336,,45.708333333333336
173,2014-03-26,72.66666666666667,,72.66666666666667
173,2014-03-27,65.875,,65.875
173,2014-03-28,13.291666666666666,,13.291666666666666
173,2014-03-29,10.583333333333334,,10.583333333333334
173,2014-03-30,15.708333333333334,,15.708333333333334
173,2014-03-31,51.958333333333336,,51.958333333333336
173,2014-04-01,62.791666666666664,,62.791666666666664
173,2014-04-02,23.75,,23.75
173,2014-04-03,64.125,,64.125
173,2014-04-04,8.625,,8.625
173,2014-04-05,69.375,,69.375
173,2014-04-06,76.91666666666667,,76.91666666666667
173,2014-04-07,26.208333333333332,,26.208333333333332
173,2014-04-08,41.333333333333336,,41.333333333333336
173,2014-04-09,73.29166666666667,,73.29166666666667
173,2014-04-10,78.625,,78.625
173,2014-04-11,50.583333333333336,,50.583333333333336
173,2014-04-12,72.875,,72.875
173,2014-04-13,64.54166666666667,,64.54166666666667
173,2014-04-14,63.541666666666664,,63.541666666666664
173,2014-04-15,10.458333333333334,,10.458333333333334
173,2014-04-16,76.70833333333333,,76.70833333333333
173,2014-04-17,66.5,,66.5
173,2014-04-18,59.125,,59.125
173,2014-04-19,77.41666666666667,,77.41666666666667
173,2014-04-20,82.25,,82.25
173,2014-04-21,79.75,,79.75
173,2014-04-22,59.291666666666664,,59.291666666666664
173,2014-04-23,48.291666666666664,,48.291666666666664
173,2014-04-24,85.25,,85.25
173,2014-04-25,71.95833333333333,,71.95833333333333
173,2014-04-26,53.875,,53.875
173,2014-04-27,60.583333333333336,,60.583333333333336
173,2014-04-28,74.625,,74.625
173,2014-04-29,14.958333333333334,,14.958333333333334
173,2014-04-30,5.125,,5.125
173,2014-05-01,57.958333333333336,,57.958333333333336
173,2014-05-02,52.583333333333336,,52.583333333333336
173,2014-05-03,62.375,,62.375
173,2014-05-04,45.708333333333336,,45.708333333333336
173,2014-05-05,78.58333333333333,,78.58333333333333
173,2014-05-06,66.875,,66.875
173,2014-05-07,72.41666666666667,,72.41666666666667
173,2014-05-08,14.208333333333334,,14.208333333333334
173,2014-05-09,20.583333333333332,,20.583333333333332
173,2014-05-10,47.416666666666664,,47.416666666666664
173,2014-05-11,80.33333333333333,,80.33333333333333
173,2014-05-12,56.166666666666664,,56.166666666666664
173,2014-05-13,69.5,,69.5
173,2014-05-14,46.625,,46.625
173,2014-05-15,32.958333333333336,,32.958333333333336
173,2014-05-16,20.041666666666668,,20.041666666666668
173,2014-05-17,81.91666666666667,,81.91666666666667
173,2014-05-18,70.04166666666667,,70.04166666666667
173,2014-05-19,66.08333333333333,,66.08333333333333
173,2014-05-20,76.79166666666667,,76.79166666666667
173,2014-05-21,47.583333333333336,,47.583333333333336
173,2014-05-22,19.625,,19.625
173,2014-05-23,40.541666666666664,,40.541666666666664
173,2014-05-24,32.166666666666664,,32.166666666666664
173,2014-05-25,80.125,,80.125
173,2014-05-26,75.70833333333333,,75.70833333333333
173,2014-05-27,51.916666666666664,,51.916666666666664
173,2014-05-28,18.958333333333332,,18.958333333333332
173,2014-05-29,76.125,,76.125
173,2014-05-30,70.20833333333333,,70.20833333333333
173,2014-05-31,65.91666666666667,,65.91666666666667
173,2014-06-01,84.625,,84.625
173,2014-06-02,82.5,,82.5
173,2014-06-03,70.54166666666667,,70.54166666666667
173,2014-06-04,61.0,,61.0
173,2014-06-05,43.25,,43.25
173,2014-06-06,66.0,,66.0
173,2014-06-07,82.08333333333333,,82.08333333333333
173,2014-06-08,72.91666666666667,,72.91666666666667
173,2014-06-09,16.666666666666668,,16.666666666666668
173,2014-06-10,44.583333333333336,,44.583333333333336
173,2014-06-11,29.375,,29.375
173,2014-06-12,20.416666666666668,,20.416666666666668
173,2014-06-13,42.166666666666664,,42.166666666666664
173,2014-06-14,67.66666666666667,,67.66666666666667
173,2014-06-15,83.41666666666667,,83.41666666666667
173,2014-06-16,80.66666666666667,,80.66666666666667
173,2014-06-17,70.33333333333333,,70.33333333333333
173,2014-06-18,82.91666666666667,,82.91666666666667
173,2014-06-19,33.25,,33.25
173,2014-06-20,81.16666666666667,,81.16666666666667
173,2014-06-21,83.91666666666667,,83.91666666666667
173,2014-06-22,74.75,,74.75
173,2014-06-23,74.91666666666667,,74.91666666666667
173,2014-06-24,70.66666666666667,,70.66666666666667
173,2014-06-25,58.791666666666664,,58.791666666666664
173,2014-06-26,61.416666666666664,,61.416666666666664
173,2014-06-27,69.875,,69.875
173,2014-06-28,75.04166666666667,,75.04166666666667
173,2014-06-29,79.29166666666667,,79.29166666666667
173,2014-06-30,73.79166666666667,,73.79166666666667
173,2014-07-01,62.666666666666664,,62.666666666666664
173,2014-07-02,69.875,,69.875
173,2014-07-03,68.33333333333333,,68.33333333333333
173,2014-07-04,28.625,,28.625
173,2014-07-05,84.125,,84.125
173,2014-07-06,81.79166666666667,,81.79166666666667
173,2014-07-07,77.29166666666667,,77.29166666666667
173,2014-07-08,68.83333333333333,,68.83333333333333
173,2014-07-09,66.125,,66.125
173,2014-07-10,64.08333333333333,,64.08333333333333
173,2014-07-11,74.5,,74.5
173,2014-07-12,77.125,,77.125
173,2014-07-13,50.125,,50.125
173,2014-07-14,41.125,,41.125
173,2014-07-15,32.458333333333336,,32.458333333333336
173,2014-07-16,56.291666666666664,,56.291666666666664
173,2014-07-17,57.5,,57.5
173,2014-07-18,74.0,,74.0
173,2014-07-19,42.5,,42.5
173,2014-07-20,44.916666666666664,,44.916666666666664
173,2014-07-21,66.79166666666667,,66.79166666666667
173,2014-07-22,63.708333333333336,,63.708333333333336
173,2014-07-23,66.29166666666667,,66.29166666666667
173,2014-07-24,47.958333333333336,,47.958333333333336
173,2014-07-25,75.33333333333333,,75.33333333333333
173,2014-07-26,44.083333333333336,,44.083333333333336
173,2014-07-27,47.083333333333336,,47.083333333333336
173,2014-07-28,59.583333333333336,,59.583333333333336
173,2014-07-29,61.208333333333336,,61.208333333333336
173,2014-07-30,68.95833333333333,,68.95833333333333
173,2014-07-31,57.458333333333336,,57.458333333333336
173,2014-08-01,43.75,,43.75
173,2014-08-02,46.791666666666664,,46.791666666666664
173,2014-08-03,33.916666666666664,,33.916666666666664
173,2014-08-04,67.91666666666667,,67.91666666666667
173,2014-08-05,64.75,,64.75
173,2014-08-06,51.208333333333336,,51.208333333333336
173,2014-08-07,68.45833333333333,,68.45833333333333
173,2014-08-08,68.41666666666667,,68.41666666666667
173,2014-08-09,66.04166666666667,,66.04166666666667
173,2014-08-10,68.125,,68.125
173,2014-08-11,64.33333333333333,,64.33333333333333
173,2014-08-12,24.666666666666668,,24.666666666666668
173,2014-08-13,35.416666666666664,,35.416666666666664
173,2014-08-14,70.08333333333333,,70.08333333333333
173,2014-08-15,49.458333333333336,,49.458333333333336
173,2014-08-16,62.958333333333336,,62.958333333333336
173,2014-08-17,49.708333333333336,,49.708333333333336
173,2014-08-18,68.29166666666667,,68.29166666666667
173,2014-08-19,56.416666666666664,,56.416666666666664
173,2014-08-20,65.41666666666667,,65.41666666666667
173,2014-08-21,54.208333333333336,,54.208333333333336
173,2014-08-22,4.166625,,4.166625
173,2014-08-23,18.875,,18.875
173,2014-08-24,58.625,,58.625
173,2014-08-25,65.375,,65.375
173,2014-08-26,64.58333333333333,,64.58333333333333
173,2014-08-27,63.416666666666664,,63.416666666666664
173,2014-08-28,66.125,,66.125
173,2014-08-29,66.125,,66.125
173,2014-08-30,43.708333333333336,,43.708333333333336
173,2014-08-31,41.958333333333336,,41.958333333333336
173,2014-09-01,47.291666666666664,,47.291666666666664
173,2014-09-02,54.083333333333336,,54.083333333333336
173,2014-09-03,57.75,,57.75
173,2014-09-04,62.208333333333336,,62.208333333333336
173,2014-09-05,53.208333333333336,,53.208333333333336
173,2014-09-06,37.333333333333336,,37.333333333333336
173,2014-09-07,63.75,,63.75
173,2014-09-08,38.0,,38.0
173,2014-09-09,28.583333333333332,,28.583333333333332
173,2014-09-10,55.75,,55.75
173,2014-09-11,27.166666666666668,,27.166666666666668
173,2014-09-12,58.916666666666664,,58.916666666666664
173,2014-09-13,14.75,,14.75
173,2014-09-14,60.458333333333336,,60.458333333333336
173,2014-09-15,60.708333333333336,,60.708333333333336
173,2014-09-16,23.833333333333332,,23.833333333333332
173,2014-09-17,61.75,,61.75
173,2014-09-18,49.75,,49.75
173,2014-09-19,51.833333333333336,,51.833333333333336
173,2014-09-20,50.166666666666664,,50.166666666666664
173,2014-09-21,21.791666666666668,,21.791666666666668
173,2014-09-22,45.041666666666664,,45.041666666666664
173,2014-09-23,58.25,,58.25
173,2014-09-24,34.833333333333336,,34.833333333333336
173,2014-09-25,17.041666666666668,,17.041666666666668
173,2014-09-26,56.083333333333336,,56.083333333333336
173,2014-09-27,55.0,,55.0
173,2014-09-28,46.708333333333336,,46.708333333333336
173,2014-09-29,23.125,,23.125
173,2014-09-30,14.75,,14.75
173,2014-10-01,6.583333333333333,,6.583333333333333
173,2014-10-02,18.458333333333332,,18.458333333333332
173,2014-10-03,51.458333333333336,,51.458333333333336
173,2014-10-04,15.583333333333334,,15.583333333333334
173,2014-10-05,56.166666666666664,,56.166666666666664
173,2014-10-06,52.458333333333336,,52.458333333333336
173,2014-10-07,29.25,,29.25
173,2014-10-08,47.208333333333336,,47.208333333333336
173,2014-10-09,40.5,,40.5
173,2014-10-10,27.708333333333332,,27.708333333333332
173,2014-10-11,7.333333333333333,,7.333333333333333
173,2014-10-12,51.041666666666664,,51.041666666666664
173,2014-10-13,14.083333333333334,,14.083333333333334
173,2014-10-14,46.0,,46.0
173,2014-10-15,30.041666666666668,,30.041666666666668
173,2014-10-16,33.125,,33.125
173,2014-10-17,45.041666666666664,,45.041666666666664
173,2014-10-18,25.25,,25.25
173,2014-10-19,41.375,,41.375
173,2014-10-20,38.916666666666664,,38.916666666666664
173,2014-10-21,30.416666666666668,,30.416666666666668
173,2014-10-22,4.541666666666667,,4.541666666666667
173,2014-10-23,7.916666666666667,,7.916666666666667
173,2014-10-24,24.375,,24.375
173,2014-10-25,42.041666666666664,,42.041666666666664
173,2014-10-26,31.5,,31.5
173,2014-10-27,43.083333333333336,,43.083333333333336
173,2014-10-28,32.125,,32.125
173,2014-10-29,24.041666666666668,,24.041666666666668
173,2014-10-30,38.541666666666664,,38.541666666666664
173,2014-10-31,14.833333333333334,,14.833333333333334
173,2014-11-01,2.4166666666666665,,2.4166666666666665
173,2014-11-02,33.291666666666664,,33.291666666666664
173,2014-11-03,38.833333333333336,,38.833333333333336
173,2014-11-04,35.166666666666664,,35.166666666666664
173,2014-11-05,12.041666666666666,,12.041666666666666
173,2014-11-06,2.0416666666666665,,2.0416666666666665
173,2014-11-07,27.653875,,27.653875
173,2014-11-08,27.84658333333333,,27.84658333333333
173,2014-11-09,24.666666666666668,,24.666666666666668
173,2014-11-10,34.25,,34.25
173,2014-11-11,25.541666666666668,,25.541666666666668
173,2014-11-12,13.041666666666666,,13.041666666666666
173,2014-11-13,19.875,,19.875
173,2014-11-14,34.208416666666665,,34.208416666666665
173,2014-11-15,33.708333333333336,,33.708333333333336
173,2014-11-16,7.541666666666667,,7.541666666666667
173,2014-11-17,2.2083333333333335,,2.2083333333333335
173,2014-11-18,36.5,,36.5
173,2014-11-19,35.083333333333336,,35.083333333333336
173,2014-11-20,25.125,,25.125
173,2014-11-21,33.833333333333336,,33.833333333333336
173,2014-11-22,30.583333333333332,,30.583333333333332
173,2014-11-23,27.125,,27.125
173,2014-11-24,17.375,,17.375
173,2014-11-25,10.333333333333334,,10.333333333333334
173,2014-11-26,1.1666666666666667,,1.1666666666666667
173,2014-11-27,8.5,,8.5
173,2014-11-28,25.708333333333332,,25.708333333333332
173,2014-11-29,13.625,,13.625
173,2014-11-30,16.875,,16.875
173,2014-12-01,14.5,,14.5
173,2014-12-02,6.0,,6.0
173,2014-12-03,3.750083333333333,,3.750083333333333
173,2014-12-04,26.291666666666668,,26.291666666666668
173,2014-12-05,8.416666666666666,,8.416666666666666
173,2014-12-06,1.8333333333333333,,1.8333333333333333
173,2014-12-07,30.291666666666668,,30.291666666666668
173,2014-12-08,10.708333333333334,,10.708333333333334
173,2014-12-09,0.7916249999999999,,0.7916249999999999
173,2014-12-10,6.833333333333333,,6.833333333333333
173,2014-12-11,12.375,,12.375
173,2014-12-12,22.027375000000003,,22.027375000000003
173,2014-12-13,25.722624999999997,,25.722624999999997
173,2014-12-14,14.25,,14.25
173,2014-12-15,25.75,,25.75
173,2014-12-16,10.541666666666666,,10.541666666666666
173,2014-12-17,16.166666666666668,,16.166666666666668
173,2014-12-18,20.833333333333332,,20.833333333333332
173,2014-12-19,20.916666666666668,,20.916666666666668
173,2014-12-20,5.208333333333333,,5.208333333333333
173,2014-12-21,6.0,,6.0
173,2014-12-22,4.875,,4.875
173,2014-12-23,4.416666666666667,,4.416666666666667
173,2014-12-24,1.875,,1.875
173,2014-12-25,15.666666666666666,,15.666666666666666
173,2014-12-26,27.833333333333332,,27.833333333333332
173,2014-12-27,25.625,,25.625
173,2014-12-28,9.625,,9.625
173,2014-12-29,22.125,,22.125
173,2014-12-30,17.375,,17.375
173,2014-12-31,23.375,,23.375
173,2015-01-01,28.75,,28.75
173,2015-01-02,25.625,,25.625
173,2015-01-03,5.708333333333333,,5.708333333333333
173,2015-01-04,3.75,,3.75
173,2015-01-05,25.916666666666668,,25.916666666666668
173,2015-01-06,1.0416666666666667,,1.0416666666666667
173,2015-01-07,20.375,,20.375
173,2015-01-08,31.208333333333332,,31.208333333333332
173,2015-01-09,10.333333333333334,,10.333333333333334
173,2015-01-10,25.375,,25.375
173,2015-01-11,20.833333333333332,,20.833333333333332
173,2015-01-12,1.7916666666666667,,1.7916666666666667
173,2015-01-13,33.166666666666664,,33.166666666666664
173,2015-01-14,19.458333333333332,,19.458333333333332
173,2015-01-15,27.625,,27.625
173,2015-01-16,26.125,,26.125
173,2015-01-17,32.708333333333336,,32.708333333333336
173,2015-01-18,0.9583333333333334,,0.9583333333333334
173,2015-01-19,17.541666666666668,,17.541666666666668
173,2015-01-20,22.333333333333332,,22.333333333333332
173,2015-01-21,20.458333333333332,,20.458333333333332
173,2015-01-22,24.333333333333332,,24.333333333333332
173,2015-01-23,32.958333333333336,,32.958333333333336
173,2015-01-24,0.0,,0.0
173,2015-01-25,17.541666666666668,,17.541666666666668
173,2015-01-26,6.833333333333333,,6.833333333333333
173,2015-01-27,12.291666666666666,,12.291666666666666
173,2015-01-28,33.25,,33.25
173,2015-01-29,25.291666666666668,,25.291666666666668
173,2015-01-30,13.458333333333334,,13.458333333333334
173,2015-01-31,40.958333333333336,,40.958333333333336
173,2015-02-01,21.583333333333332,,21.583333333333332
173,2015-02-02,0.08333333333333333,,0.08333333333333333
173,2015-02-03,2.5416666666666665,,2.5416666666666665
173,2015-02-04,1.5416666666666667,,1.5416666666666667
173,2015-02-05,4.333333333333333,,4.333333333333333
173,2015-02-06,5.375,,5.375
173,2015-02-07,2.375,,2.375
173,2015-02-08,7.5,,7.5
173,2015-02-09,2.7083333333333335,,2.7083333333333335
173,2015-02-10,20.416666666666668,,20.416666666666668
173,2015-02-11,44.166666666666664,,44.166666666666664
173,2015-02-12,20.458333333333332,,20.458333333333332
173,2015-02-13,47.291666666666664,,47.291666666666664
173,2015-02-14,9.375,,9.375
173,2015-02-15,42.708333333333336,,42.708333333333336
173,2015-02-16,41.458333333333336,,41.458333333333336
173,2015-02-17,4.958333333333333,,4.958333333333333
173,2015-02-18,20.291666666666668,,20.291666666666668
173,2015-02-19,33.25,,33.25
173,2015-02-20,51.041666666666664,,51.041666666666664
173,2015-02-21,14.916666666666666,,14.916666666666666
173,2015-02-22,5.166666666666667,,5.166666666666667
173,2015-02-23,28.208333333333332,,28.208333333333332
173,2015-02-24,49.166666666666664,,49.166666666666664
173,2015-02-25,50.166666666666664,,50.166666666666664
173,2015-02-26,29.291666666666668,,29.291666666666668
173,2015-02-27,53.25,,53.25
173,2015-02-28,54.291666666666664,,54.291666666666664
173,2015-03-01,9.625,,9.625
173,2015-03-02,5.208291666666667,,5.208291666666667
173,2015-03-03,15.166666666666666,,15.166666666666666
173,2015-03-04,17.166666666666668,,17.166666666666668
173,2015-03-05,0.0,,0.0
173,2015-03-06,0.0,,0.0
173,2015-03-07,0.16666666666666666,,0.16666666666666666
173,2015-03-08,25.25,,25.25
173,2015-03-09,52.166666666666664,,52.166666666666664
173,2015-03-10,22.75,,22.75
173,2015-03-11,45.291666666666664,,45.291666666666664
173,2015-03-12,58.041666666666664,,58.041666666666664
173,2015-03-13,54.083333333333336,,54.083333333333336
173,2015-03-14,9.125,,9.125
173,2015-03-15,14.541666666666666,,14.541666666666666
173,2015-03-16,38.166666666666664,,38.166666666666664
173,2015-03-17,31.791666666666668,,31.791666666666668
173,2015-03-18,46.583333333333336,,46.583333333333336
173,2015-03-19,61.0,,61.0
173,2015-03-20,11.875,,11.875
173,2015-03-21,8.916666666666666,,8.916666666666666
173,2015-03-22,64.625,,64.625
173,2015-03-23,65.625,,65.625
173,2015-03-24,57.5,,57.5
173,2015-03-25,36.416666666666664,,36.416666666666664
173,2015-03-26,15.833333333333334,,15.833333333333334
173,2015-03-27,14.958333333333334,,14.958333333333334
173,2015-03-28,33.666666666666664,,33.666666666666664
173,2015-03-29,68.33333333333333,,68.33333333333333
173,2015-03-30,26.75,,26.75
173,2015-03-31,25.458333333333332,,25.458333333333332
173,2015-04-01,63.0,,63.0
173,2015-04-02,61.291666666666664,,61.291666666666664
173,2015-04-03,12.25,,12.25
173,2015-04-04,64.54166666666667,,64.54166666666667
173,2015-04-05,48.583333333333336,,48.583333333333336
173,2015-04-06,63.041666666666664,,63.041666666666664
173,2015-04-07,18.375,,18.375
173,2015-04-08,21.333333333333332,,21.333333333333332
173,2015-04-09,11.666666666666666,,11.666666666666666
173,2015-04-10,18.416666666666668,,18.416666666666668
173,2015-04-11,73.66666666666667,,73.66666666666667
173,2015-04-12,72.58333333333333,,72.58333333333333
173,2015-04-13,63.625,,63.625
173,2015-04-14,19.083333333333332,,19.083333333333332
173,2015-04-15,68.54166666666667,,68.54166666666667
173,2015-04-16,68.16666666666667,,68.16666666666667
173,2015-04-17,27.166666666666668,,27.166666666666668
173,2015-04-18,62.916666666666664,,62.916666666666664
173,2015-04-19,66.5,,66.5
173,2015-04-20,11.5,,11.5
173,2015-04-21,69.66666666666667,,69.66666666666667
173,2015-04-22,50.75,,50.75
173,2015-04-23,47.875,,47.875
173,2015-04-24,62.541666666666664,,62.541666666666664
173,2015-04-25,76.95833333333333,,76.95833333333333
173,2015-04-26,64.41666666666667,,64.41666666666667
173,2015-04-27,46.583333333333336,,46.583333333333336
173,2015-04-28,70.125,,70.125
173,2015-04-29,74.20833333333333,,74.20833333333333
173,2015-04-30,61.458333333333336,,61.458333333333336
173,2015-05-01,61.041666666666664,,61.041666666666664
173,2015-05-02,76.125,,76.125
173,2015-05-03,74.125,,74.125
173,2015-05-04,71.16666666666667,,71.16666666666667
173,2015-05-05,50.958333333333336,,50.958333333333336
173,2015-05-06,32.666666666666664,,32.666666666666664
173,2015-05-07,73.0,,73.0
173,2015-05-08,72.54166666666667,,72.54166666666667
173,2015-05-09,31.458333333333332,,31.458333333333332
173,2015-05-10,56.625,,56.625
173,2015-05-11,54.958333333333336,,54.958333333333336
173,2015-05-12,58.208333333333336,,58.208333333333336
173,2015-05-13,60.666666666666664,,60.666666666666664
173,2015-05-14,77.75,,77.75
173,2015-05-15,60.875,,60.875
173,2015-05-16,41.916666666666664,,41.916666666666664
173,2015-05-17,56.291666666666664,,56.291666666666664
173,2015-05-18,19.0,,19.0
173,2015-05-19,47.208333333333336,,47.208333333333336
173,2015-05-20,65.04166666666667,,65.04166666666667
173,2015-05-21,29.5,,29.5
173,2015-05-22,60.125,,60.125
173,2015-05-23,83.875,,83.875
173,2015-05-24,75.125,,75.125
173,2015-05-25,71.375,,71.375
173,2015-05-26,70.66666666666667,,70.66666666666667
173,2015-05-27,58.0,,58.0
173,2015-05-28,50.0,,50.0
173,2015-05-29,70.45833333333333,,70.45833333333333
173,2015-05-30,71.83333333333333,,71.83333333333333
173,2015-05-31,50.125,,50.125
173,2015-06-01,13.625,,13.625
173,2015-06-02,14.375,,14.375
173,2015-06-03,75.125,,75.125
173,2015-06-04,49.375,,49.375
173,2015-06-05,47.791666666666664,,47.791666666666664
173,2015-06-06,54.375,,54.375